Track STARLINK-3939 now! 10-day predictions STARLINK-3939 is classified as:
1 52545U 22051N 22221.25001157 -.00040363 00000-0 -25315-2 0 9997 2 52545 53.2156 242.9405 0001923 45.9626 325.8766 15.08849867 13982